Theta_e
288 289 290 290 290 290 290 290 290 290 290 290 290 291 291 292 292 293 293 292 293 292 292 292 292 291 291 291 290 290 290 289 289 289 289 288 288 288 288 287 287 287 288 287 287 287 287 287 287 288 289 288 288 288 288 289 289 289 289 289 288 288 287 287 285 285 285 287 286 285 285 285 283 284 283 283 282 282 281 282 282 282 282 283 283
288 288 288 289 290 290 290 290 290 290 289 290 290 290 290 291 292 292 291 292 292 292 292 292 291 291 290 290 290 290 290 290 289 289 288 288 287 288 287 287 286 286 287 286 286 286 286 286 286 287 288 287 287 287 287 287 287 287 287 287 287 287 287 286 286 285 283 283 284 284 283 284 282 284 283 282 281 282 281 282 282 282 282 283 283
288 288 288 288 289 290 289 289 289 288 288 289 289 290 290 290 291 291 290 291 291 291 291 291 291 290 290 289 290 289 289 289 289 288 288 287 287 287 287 287 286 285 285 286 286 285 284 285 285 286 287 286 286 286 287 286 286 286 285 285 286 286 286 287 286 284 283 282 284 282 282 282 283 282 282 282 281 281 281 281 281 282 282 282 283
288 288 287 287 287 288 288 288 288 287 287 287 288 289 289 290 290 290 290 290 290 290 290 291 291 290 289 289 289 289 288 288 288 287 287 287 287 286 286 286 286 285 285 285 285 284 284 284 285 285 285 284 285 285 285 286 285 285 284 284 284 285 285 285 286 285 285 281 282 282 282 281 281 282 281 281 280 280 280 281 282 281 282 282 282
287 287 286 286 286 286 287 287 286 286 286 287 286 287 288 288 289 289 289 289 289 289 289 290 289 289 288 288 288 288 288 288 287 287 287 287 286 286 286 285 285 285 285 285 285 284 284 284 285 285 284 283 284 284 284 284 284 283 283 283 283 283 283 283 284 285 284 282 281 282 282 281 281 281 280 279 279 280 281 280 281 281 282 282 283
288 287 287 286 286 286 286 286 286 286 286 286 286 287 287 288 288 289 289 289 289 289 289 289 288 288 288 288 288 287 287 287 287 286 286 286 286 286 286 286 285 285 285 285 285 284 284 284 284 284 284 283 284 284 284 283 283 283 283 283 282 282 282 282 283 283 284 283 281 279 280 279 279 279 280 280 279 279 279 280 281 281 281 281 282
287 287 286 286 285 286 286 286 286 285 285 285 286 286 287 287 288 288 289 288 288 288 289 288 288 287 288 288 288 288 287 287 286 285 285 285 285 284 285 285 284 284 284 284 284 284 284 284 284 284 284 284 284 284 283 283 283 283 283 283 282 282 281 281 281 281 282 282 281 280 278 279 279 277 279 280 280 281 280 279 279 281 281 281 281
285 286 286 285 285 286 286 287 286 286 286 285 286 286 286 286 287 287 288 288 288 288 288 288 288 288 287 287 288 288 288 288 288 287 286 285 285 284 284 284 284 284 283 284 284 284 284 284 284 284 284 284 284 285 283 282 282 282 283 283 282 281 281 280 280 280 280 280 279 278 278 278 278 279 279 279 278 278 280 280 280 280 280 282 282
284 285 285 284 284 285 286 287 287 286 285 285 285 285 286 286 286 286 287 287 288 288 288 287 287 287 287 287 286 287 287 287 287 287 286 285 284 284 284 284 283 283 283 283 283 283 284 284 284 284 285 284 284 285 284 283 282 282 282 282 281 280 280 280 279 279 279 278 278 278 277 277 277 277 277 277 277 278 280 280 279 281 281 281 281
284 284 284 283 284 285 286 286 286 285 284 284 284 285 285 286 286 286 286 287 287 287 287 287 287 287 286 286 286 286 286 287 287 287 287 285 284 284 284 284 284 283 283 283 283 283 284 284 284 284 284 283 284 284 285 285 284 283 282 282 281 280 280 279 278 279 278 277 277 277 276 276 277 277 277 278 280 281 280 279 278 280 280 280 281
283 283 283 283 283 284 285 285 285 284 284 283 283 284 284 284 285 285 285 286 286 286 287 286 286 286 286 286 286 286 286 287 287 289 289 289 287 285 285 284 284 284 283 283 283 283 283 283 283 283 283 283 284 285 285 285 284 284 283 283 283 281 279 278 278 278 277 277 277 277 277 276 277 278 278 279 279 279 279 279 279 279 278 279 278
282 282 282 282 282 283 284 284 283 282 282 282 282 283 284 284 284 284 284 284 285 285 285 286 286 286 286 286 286 286 286 287 288 289 289 289 288 286 285 284 284 284 283 283 283 283 283 282 282 283 283 283 282 282 284 284 285 284 284 283 283 283 283 280 278 277 277 277 277 277 277 277 277 277 278 278 278 279 279 279 279 279 278 278 279
281 281 281 281 281 282 283 282 281 280 280 280 280 281 283 283 283 284 283 284 284 284 284 285 285 286 286 286 286 286 286 287 289 289 289 289 289 288 285 285 284 284 284 283 283 283 283 282 281 282 282 282 282 282 282 282 284 284 284 283 283 283 283 283 282 280 279 278 278 277 278 278 277 277 278 279 280 278 279 278 278 278 279 278 279
281 280 280 280 281 281 281 280 279 279 279 278 279 279 282 282 283 283 283 284 284 284 284 284 285 285 285 285 286 286 286 287 288 289 289 289 289 289 286 285 284 284 284 283 283 283 283 282 281 281 282 282 282 281 281 281 282 282 282 281 280 281 283 283 282 280 279 279 279 277 278 279 278 278 280 281 280 278 278 277 279 278 278 278 280
279 279 279 279 280 280 279 279 278 278 277 277 277 278 280 282 282 282 282 282 282 282 283 283 283 284 285 285 285 285 286 287 288 288 289 289 289 289 287 286 285 284 284 284 283 283 283 283 282 282 282 282 282 281 281 280 280 280 280 279 279 280 280 280 280 279 278 278 278 278 279 279 279 280 280 281 280 280 281 279 279 279 279 280 278
279 279 278 279 278 279 278 277 277 276 276 275 275 276 278 281 281 281 281 282 282 283 283 283 283 283 284 284 284 284 286 287 287 288 288 289 289 287 286 286 285 285 284 284 283 283 283 283 282 282 282 282 282 283 282 281 280 279 278 278 278 279 279 280 281 280 279 278 278 278 279 279 281 280 280 280 280 280 280 280 279 277 276 274 273
278 278 278 278 278 278 277 276 275 275 274 274 274 275 276 278 279 280 279 280 280 281 281 281 282 283 283 283 283 284 285 286 286 287 287 288 288 287 286 286 286 285 284 285 283 282 282 282 282 282 281 281 282 284 284 282 279 278 277 276 277 277 277 279 281 281 280 280 280 281 281 282 282 282 282 281 280 280 278 275 273 275 273 272 272
277 277 277 277 277 277 276 275 274 274 273 273 273 273 274 276 277 278 278 278 278 279 280 281 281 282 282 282 283 283 284 285 286 286 286 287 287 286 286 286 285 285 285 285 284 282 282 282 282 281 281 281 283 284 284 282 279 278 277 276 275 275 276 277 278 279 280 280 281 281 281 282 282 282 282 282 281 281 276 273 275 275 272 273 271
276 276 276 276 276 276 275 274 273 272 272 272 272 272 272 274 276 277 277 277 277 279 279 280 280 281 282 282 282 282 283 284 285 285 286 286 286 286 286 285 285 285 285 284 284 283 281 282 282 282 281 281 283 284 285 282 279 278 277 276 274 274 275 277 277 277 277 277 278 279 280 281 280 279 280 282 282 280 277 276 276 274 272 272 271
276 276 275 275 275 274 274 273 272 272 271 271 271 271 272 273 274 275 274 275 275 276 277 278 279 279 280 281 281 282 282 283 284 285 285 286 286 285 285 284 284 284 284 284 282 282 281 281 282 283 283 283 284 285 285 284 279 279 278 275 275 274 277 277 277 277 277 277 278 278 278 279 278 279 279 280 281 278 277 276 274 274 272 271 271
274 274 274 273 273 273 272 272 271 271 271 270 270 271 271 272 273 272 272 272 273 273 275 276 277 278 279 280 281 281 282 282 283 284 285 285 286 286 285 284 284 284 284 283 282 280 280 280 280 282 284 283 283 284 285 285 283 279 278 276 276 277 278 276 277 279 278 278 277 277 277 277 276 276 277 276 275 274 274 274 274 274 272 270 270
273 272 272 271 271 271 270 270 270 270 270 269 269 269 270 271 271 270 270 270 270 271 272 274 275 277 278 279 280 280 281 282 282 283 284 285 285 285 284 285 285 284 284 283 281 279 279 279 279 281 283 283 283 284 285 285 284 279 278 280 280 280 277 277 278 278 277 277 276 276 275 273 273 273 273 273 273 272 273 273 273 273 273 273 272
271 270 270 269 269 269 269 269 269 269 268 268 268 267 268 268 268 268 268 268 269 269 271 273 274 276 277 278 279 280 281 281 282 282 283 284 284 285 285 285 286 286 284 283 280 279 279 278 279 281 282 283 283 284 285 285 284 281 281 281 281 281 279 276 277 277 276 276 275 273 273 272 271 271 271 271 272 272 272 272 273 273 273 273 273
269 268 267 267 267 267 267 267 267 267 267 267 267 266 266 266 267 267 267 267 268 269 270 272 274 275 275 277 278 280 281 281 281 281 281 282 284 284 285 286 286 285 285 284 283 279 278 278 278 281 282 283 283 284 284 284 283 283 282 282 281 281 276 275 275 275 274 274 273 272 271 272 272 271 271 272 272 271 271 271 272 272 272 272 272
265 265 264 265 265 265 265 265 265 265 265 265 265 265 265 265 265 266 267 267 267 268 269 271 272 274 275 276 277 279 280 281 280 280 281 282 283 284 284 285 286 286 285 284 282 279 279 280 280 281 282 283 283 283 284 284 285 284 282 281 281 278 275 275 274 274 273 272 272 271 271 271 272 272 273 272 272 272 271 271 271 271 271 271 270
262 262 262 263 263 263 263 263 263 264 264 265 264 264 264 264 264 265 266 266 267 268 269 270 272 273 274 275 276 277 279 280 279 279 279 280 281 282 283 284 284 285 285 284 284 281 281 281 281 281 281 282 281 281 281 282 284 283 281 281 279 277 275 274 274 273 272 272 271 271 270 271 271 272 272 271 270 269 269 268 268 267 267 267 267
261 261 260 261 261 261 261 261 262 262 262 263 263 264 264 264 264 264 265 265 266 267 269 270 272 273 274 275 276 277 277 278 279 279 278 278 278 279 280 281 283 283 284 284 283 280 280 280 279 280 280 281 282 282 282 282 282 281 279 279 279 276 274 274 273 272 272 271 271 270 270 270 271 270 269 269 268 269 269 268 267 267 267 267 267
260 259 259 260 260 260 260 261 261 261 261 262 262 262 263 263 263 263 264 264 265 266 267 269 270 272 273 275 276 276 277 277 278 278 278 278 277 278 279 280 280 281 282 283 282 280 278 280 280 279 279 279 279 280 280 280 281 279 278 278 277 275 276 276 275 273 272 272 271 269 268 268 267 268 268 267 267 268 269 267 267 267 267 266 266
259 259 259 259 259 260 260 260 260 260 260 261 261 262 261 262 262 263 265 266 266 266 266 267 269 271 272 273 274 274 276 276 278 280 278 279 277 277 277 278 280 281 282 284 280 278 277 277 276 276 276 277 277 277 278 279 279 278 277 277 276 274 274 273 272 271 270 269 268 267 267 267 266 266 266 266 266 267 268 266 267 266 266 266 265
258 258 259 259 259 259 259 260 260 260 260 260 260 261 264 267 265 263 263 267 270 271 271 268 269 270 271 273 275 274 275 277 280 281 281 281 280 280 280 280 281 281 283 284 280 276 276 275 275 275 275 276 276 276 277 278 277 276 276 277 274 273 272 272 271 270 269 268 268 267 265 265 265 265 265 265 265 266 267 266 265 266 264 265 264
258 258 258 259 259 259 259 259 259 260 260 260 260 260 260 262 267 268 269 269 270 271 272 273 274 275 273 271 274 278 279 280 281 281 281 281 281 281 281 281 282 282 283 281 277 275 275 274 274 275 275 275 276 276 276 277 275 274 274 273 273 272 271 271 270 269 268 267 267 266 265 265 264 264 264 264 264 264 265 266 266 266 265 265 265
257 258 258 258 258 259 259 259 259 259 259 260 259 259 259 259 260 265 268 268 269 270 272 273 274 275 276 276 275 274 277 279 280 281 281 281 281 281 282 282 282 283 283 282 276 276 275 274 274 274 275 275 275 276 276 275 272 272 272 271 271 270 270 269 268 267 267 267 266 264 265 265 265 264 264 264 264 264 264 264 264 264 265 265 264
257 257 257 258 258 258 258 258 258 259 258 258 259 259 259 259 258 259 262 267 269 270 271 272 273 273 274 276 278 278 278 279 280 281 281 281 282 281 282 282 282 283 283 279 277 276 275 274 274 275 275 275 276 276 275 273 271 270 270 270 269 269 269 268 269 267 266 266 265 264 265 265 264 264 264 264 264 264 264 264 265 264 264 264 264
257 257 257 257 257 258 258 258 258 258 259 259 259 259 259 259 259 259 259 260 262 265 268 269 270 271 272 273 274 276 278 279 280 281 281 282 282 282 281 280 282 283 282 278 277 276 275 274 274 274 275 275 276 275 273 272 271 270 269 269 269 270 269 268 267 267 266 266 265 264 264 264 264 263 263 263 264 264 264 264 264 263 263 264 264
257 257 258 258 258 258 258 258 258 258 258 258 259 259 259 259 259 259 259 259 259 259 261 263 267 270 268 269 271 273 275 278 279 280 282 282 282 282 282 279 278 279 280 279 278 276 275 275 274 275 275 275 274 273 272 272 270 269 270 270 269 268 266 266 267 267 266 265 264 264 264 264 264 264 264 263 263 263 263 264 264 264 263 264 264
257 257 258 258 258 258 258 258 259 258 258 259 259 259 259 259 259 259 260 260 260 260 261 263 264 268 271 272 274 275 275 277 278 280 281 282 282 282 278 277 277 277 278 279 278 277 276 276 275 275 275 274 273 272 272 271 271 270 271 269 267 265 265 267 267 267 265 264 264 264 264 264 264 264 264 263 263 263 264 263 264 264 264 263 264
257 257 258 258 258 258 258 259 259 259 260 259 259 259 260 260 260 260 260 260 261 262 262 263 264 265 269 271 273 276 277 278 278 279 280 281 282 280 278 278 277 277 277 278 278 277 276 275 275 275 274 273 272 272 271 271 271 270 270 268 266 265 265 265 265 265 264 264 264 264 263 263 263 263 263 262 263 263 263 263 263 263 263 263 263
257 257 258 258 258 259 259 259 259 260 260 260 260 260 260 260 260 260 260 260 261 261 261 262 263 262 262 265 273 274 274 277 278 278 279 280 280 279 278 278 278 277 277 278 278 277 276 275 275 274 273 273 272 272 271 270 271 270 269 267 267 266 267 266 266 265 264 264 264 264 263 263 263 263 263 262 262 262 262 263 263 263 263 263 263
258 259 259 259 260 259 259 259 259 259 259 259 259 260 259 260 260 260 260 261 261 261 262 262 263 263 264 266 269 274 274 273 273 274 275 277 279 279 278 278 277 277 278 279 277 276 276 275 274 273 272 272 271 271 271 270 270 269 268 266 265 266 266 265 264 264 264 264 264 264 263 263 263 263 263 263 263 263 262 262 263 263 262 263 263
258 258 259 259 259 259 259 259 259 259 259 259 259 259 259 259 259 260 260 260 260 261 262 263 264 265 267 269 270 273 272 272 273 274 275 276 278 278 278 277 277 277 277 278 277 276 275 274 273 272 271 271 271 270 270 269 269 268 267 266 266 265 265 264 264 264 263 264 264 263 263 263 263 262 262 263 263 263 262 262 262 263 263 263 263
258 258 258 259 259 259 259 259 259 259 259 259 260 259 259 260 260 260 260 261 261 262 262 263 265 267 269 271 274 274 273 273 273 273 274 275 277 277 277 277 277 277 277 276 275 275 274 272 271 270 270 270 270 269 268 268 268 267 267 266 266 265 264 264 264 264 264 263 263 263 263 262 262 261 261 262 263 263 262 263 263 263 263 263 264
258 258 258 259 259 259 259 259 259 260 260 260 260 260 260 261 261 261 261 262 262 263 263 264 266 268 271 274 274 275 273 273 274 274 274 275 276 277 277 277 278 277 275 274 274 273 271 270 269 269 269 268 268 268 267 267 267 267 266 266 266 265 264 263 263 263 263 263 262 262 262 261 261 261 262 263 262 262 262 262 263 263 263 263 263
258 258 259 259 259 259 259 259 260 260 260 260 260 261 261 261 261 261 262 262 263 263 264 265 266 268 270 273 273 274 273 273 271 274 274 275 276 275 276 276 275 274 274 274 274 272 270 269 268 268 268 268 269 268 267 266 266 266 266 266 266 265 264 263 263 262 262 262 262 261 261 261 261 261 262 262 262 262 262 262 262 263 263 263 263
258 258 259 259 259 259 260 260 260 260 261 261 262 262 262 262 262 262 262 263 263 264 265 265 267 268 270 271 272 272 272 272 273 274 273 270 269 269 270 271 271 271 271 271 270 270 269 268 268 268 268 268 268 267 267 267 267 266 266 266 265 263 263 262 262 262 262 261 261 260 261 261 261 262 262 262 262 261 261 261 261 262 263 263 263
258 258 258 258 259 259 259 260 260 261 261 262 263 263 263 263 263 263 264 264 265 266 266 267 268 269 269 270 271 271 271 270 269 269 268 268 267 268 268 268 269 268 268 268 268 269 269 268 268 267 266 266 266 266 266 267 267 267 267 266 264 263 262 262 262 262 262 261 261 260 261 261 261 261 261 261 261 261 261 261 262 262 262 263 263
258 258 258 258 259 259 259 260 260 261 261 261 262 262 263 264 265 265 266 266 266 267 267 268 268 268 267 267 267 266 266 266 266 266 266 266 266 267 267 267 267 267 267 267 268 268 268 267 266 265 265 265 265 266 266 266 267 266 266 265 264 263 263 262 262 262 261 261 261 261 261 261 261 261 261 261 261 261 261 262 262 262 262 262 263
257 258 258 258 258 259 259 260 260 260 260 261 261 261 262 262 262 263 263 263 263 263 263 263 263 263 264 264 263 264 264 264 264 264 264 264 265 265 265 266 266 266 266 266 266 266 265 265 265 264 264 264 264 264 264 264 264 264 264 263 263 262 262 262 261 261 261 262 262 261 261 260 260 260 260 261 261 261 261 261 261 261 262 263 263
257 257 258 258 258 258 258 259 259 259 260 260 260 261 261 261 261 261 261 261 261 261 261 261 261 261 261 262 262 262 262 262 262 262 262 262 262 263 263 263 263 263 264 264 264 264 264 264 264 263 263 262 262 261 261 261 261 261 261 260 260 260 260 260 260 260 261 261 261 261 260 260 260 260 260 260 260 261 261 261 262 262 262 263 263
256 256 257 257 257 257 258 258 258 258 258 259 259 259 260 260 260 260 260 260 260 260 260 260 260 260 260 260 260 261 261 261 261 261 261 261 261 262 262 261 261 261 261 261 261 261 261 261 261 261 260 260 259 259 259 258 258 258 258 258 259 259 259 259 259 259 259 259 259 259 259 259 259 259 259 260 260 260 261 261 262 263 263 263 263
255 256 256 256 256 257 257 258 258 258 258 258 258 258 258 259 259 259 259 259 259 259 259 259 259 259 259 259 258 259 259 259 258 259 259 259 259 260 260 260 260 260 260 259 259 260 260 260 259 258 258 258 258 258 258 257 257 257 258 259 259 259 259 258 258 258 258 258 258 259 258 258 258 258 259 259 260 260 260 261 262 263 263 263 262
255 255 255 255 256 256 256 256 256 257 257 257 257 257 257 257 258 258 258 258 258 258 258 258 258 257 257 257 257 257 257 258 258 258 258 258 258 258 258 258 257 258 258 258 258 258 258 258 257 257 257 257 257 257 257 256 256 257 259 259 259 259 259 258 258 258 258 258 258 258 258 258 258 258 259 260 261 261 262 262 263 263 263 263 263
Wind_Speed
12 11 11 12 11 12 11 10 11 9 11 11 10 10 10 10 10 9 8 8 8 8 9 9 10 10 11 11 12 12 13 13 12 12 13 14 14 14 13 13 14 12 11 12 11 11 13 13 12 12 9 10 9 8 8 9 8 7 6 6 7 6 7 7 8 6 4 3 7 7 9 10 8 9 9 7 7 7 6 5 5 5 5 5 5
15 14 11 10 13 12 13 11 12 11 11 10 11 12 11 11 10 9 10 10 9 9 10 9 9 10 10 12 12 12 12 13 13 12 14 14 15 10 12 13 14 14 12 12 13 10 11 12 12 11 10 11 9 10 10 10 10 9 8 9 8 8 8 8 8 8 9 6 6 7 7 9 8 10 9 9 7 5 5 5 5 5 5 5 5
12 12 12 13 13 12 12 12 12 12 13 11 12 12 12 12 11 11 10 9 9 9 10 10 9 9 10 10 11 12 13 13 12 13 14 15 15 13 12 13 14 14 14 14 12 9 8 9 10 9 6 10 10 9 8 10 9 10 9 8 9 8 8 8 7 7 9 8 8 8 8 8 8 8 8 5 4 4 5 6 6 5 5 6 5
11 11 11 12 13 12 12 11 13 13 12 10 12 13 11 11 11 11 11 9 9 9 9 11 10 9 9 10 11 11 11 12 13 13 15 15 15 14 13 13 12 13 15 14 12 11 13 11 10 9 8 10 9 9 8 8 8 7 7 6 7 9 9 8 7 8 8 9 9 9 8 9 7 7 7 5 6 6 6 5 6 6 6 6 6
9 9 10 11 9 10 11 11 12 12 12 11 13 11 11 10 10 12 11 10 9 9 8 9 10 9 8 9 9 11 11 12 13 14 14 14 15 14 13 14 13 13 13 13 15 13 12 14 10 12 11 9 9 9 8 11 8 6 7 6 6 6 6 7 8 7 9 9 8 7 7 7 7 7 8 7 7 7 7 7 7 8 8 7 5
9 9 8 9 10 11 10 10 11 12 11 11 11 11 10 10 11 10 10 12 12 10 10 8 7 11 10 9 9 9 8 9 12 13 13 13 13 14 14 13 14 14 14 11 10 9 13 12 10 15 12 13 11 10 9 11 7 7 9 6 6 6 7 8 7 7 7 8 9 10 8 9 8 7 8 8 8 8 8 8 8 8 8 8 8
9 9 10 9 9 9 10 10 10 9 10 10 9 9 11 11 11 11 10 10 11 11 11 10 8 7 10 10 11 11 12 12 11 9 10 11 12 13 13 12 11 10 11 15 17 13 8 8 10 15 16 15 13 14 13 12 8 7 6 6 7 7 8 8 8 9 8 8 8 8 9 8 9 8 8 8 7 7 8 9 9 9 8 7 6
10 10 9 9 9 10 8 8 9 10 10 10 10 9 8 9 11 11 10 11 10 10 11 12 10 9 8 10 10 9 11 13 14 14 13 13 11 12 12 10 11 10 10 11 12 16 12 10 9 12 15 14 14 12 18 16 7 10 7 7 7 7 7 6 7 8 8 9 9 9 9 10 8 7 8 8 7 7 8 8 8 9 8 7 5
11 10 11 11 10 10 9 8 7 9 10 10 11 12 12 10 9 8 10 10 9 9 10 10 11 10 8 8 11 12 12 11 10 10 10 11 11 10 12 10 10 12 12 13 11 11 10 10 13 15 16 23 27 23 24 21 16 11 8 8 8 7 5 5 7 7 7 7 7 7 8 9 10 10 11 11 12 10 10 8 6 5 4 4 5
11 11 10 10 10 11 11 9 9 9 10 11 12 12 12 12 11 11 9 9 9 9 9 9 10 11 11 10 9 9 11 12 14 19 18 11 13 13 14 14 13 12 13 14 15 16 15 13 12 23 23 23 23 23 16 18 17 14 13 12 11 10 8 7 7 7 7 7 7 9 9 10 11 12 12 11 9 7 8 8 6 5 4 3 3
11 10 11 11 11 11 10 10 10 10 10 10 9 10 12 11 11 11 10 8 10 10 10 10 9 8 10 12 13 11 9 10 18 17 19 22 16 15 14 14 14 14 12 14 15 15 14 14 11 18 20 21 20 19 19 20 23 16 9 8 13 24 19 14 7 9 8 6 7 7 8 9 10 10 10 10 9 9 8 7 6 5 5 4 3
10 10 10 11 12 12 11 11 10 10 10 9 10 9 9 10 10 10 10 11 9 8 10 10 10 10 9 11 11 12 11 15 18 17 19 21 20 13 12 13 13 11 12 13 13 13 13 12 10 9 10 14 14 14 18 20 21 22 16 15 17 18 22 22 20 11 8 6 7 8 8 9 10 11 10 11 10 9 8 7 7 6 5 3 3
10 11 10 10 10 10 11 11 12 11 10 10 11 11 10 9 9 10 10 10 9 9 11 11 11 10 10 12 12 12 12 15 17 18 19 21 22 19 14 14 14 13 12 12 14 14 12 11 9 10 12 24 18 13 13 14 19 20 18 16 17 22 21 17 12 6 8 16 13 10 11 9 10 10 11 12 11 10 9 8 8 7 6 5 4
10 11 11 11 11 11 10 9 11 12 12 12 12 12 12 11 10 10 10 10 9 10 11 10 10 10 10 11 12 12 13 14 16 18 19 21 23 20 15 16 15 15 13 13 13 15 15 11 11 12 12 14 14 15 13 13 13 14 13 11 12 15 19 19 18 13 6 6 9 13 7 6 7 9 11 12 13 11 10 9 9 8 8 6 4
11 10 11 11 10 9 9 9 10 11 12 13 13 13 13 12 11 10 9 10 10 10 10 11 12 11 10 10 10 12 11 15 15 17 18 21 23 21 15 15 15 15 13 13 14 15 15 13 14 14 14 16 14 17 15 13 15 12 9 11 10 12 12 13 13 10 9 7 5 5 6 7 6 9 10 10 9 7 7 8 8 7 5 3 1
11 10 10 10 9 10 9 10 10 10 11 12 13 14 14 13 13 11 11 10 9 9 10 9 12 14 12 12 11 13 12 16 16 17 19 21 24 16 14 15 16 16 16 13 12 13 13 12 12 13 13 15 17 24 19 13 18 18 13 10 10 9 10 11 13 10 8 8 6 5 5 7 8 9 10 9 8 6 5 5 4 4 6 5 4
11 11 10 11 10 10 10 9 10 11 11 12 12 13 14 15 14 11 11 12 12 10 10 11 10 11 14 13 12 13 13 13 15 18 19 22 19 14 14 12 13 17 16 15 11 12 11 11 11 11 12 13 19 27 25 17 16 18 15 13 12 9 9 10 15 16 14 11 9 10 10 11 12 14 15 14 9 7 7 8 7 8 8 5 4
12 10 11 10 11 11 9 9 10 11 11 12 13 13 14 13 13 12 12 13 14 13 12 11 11 11 13 14 11 12 13 15 17 18 19 21 19 14 13 14 14 12 12 11 10 10 13 21 16 12 12 13 21 28 28 22 19 18 17 15 17 12 11 10 9 11 17 14 13 12 13 14 14 14 14 15 14 12 10 8 9 9 7 6 5
12 11 12 12 12 10 9 9 10 12 12 13 12 13 14 14 13 12 12 12 14 13 12 12 12 11 11 13 17 16 14 15 16 19 21 21 18 13 14 15 14 12 12 10 9 10 10 16 22 16 13 14 24 28 30 25 20 19 16 12 13 15 14 15 14 13 13 11 11 11 11 14 11 10 11 17 16 14 8 7 8 8 7 6 5
12 12 13 13 11 10 9 10 10 10 12 13 13 13 13 13 13 12 12 12 13 14 14 13 15 13 11 12 13 12 13 13 14 20 20 21 23 15 12 16 18 16 13 10 8 8 9 10 16 25 20 21 25 30 30 28 21 16 10 12 14 13 13 13 14 12 13 13 13 14 14 14 11 9 10 11 11 12 11 9 6 6 5 5 5
13 14 13 13 13 12 11 11 12 12 11 13 14 14 13 14 14 14 13 13 13 15 16 16 15 15 13 12 12 13 13 15 15 20 21 22 24 22 14 16 16 14 12 14 10 8 9 10 10 20 26 24 26 29 30 32 25 17 15 13 13 12 15 13 18 20 13 13 12 13 12 8 6 6 8 10 9 8 7 6 6 6 6 6 6
14 13 14 14 13 13 13 12 12 12 12 12 14 15 14 14 14 14 13 14 17 19 19 16 15 15 13 12 12 14 14 19 15 17 22 24 24 27 17 16 16 14 13 10 7 7 9 9 9 17 26 25 26 29 32 33 33 13 13 16 17 24 18 12 12 15 13 13 13 12 9 6 8 7 8 7 7 7 7 6 6 6 6 6 6
15 15 15 15 15 16 15 14 14 12 14 13 15 17 16 14 14 14 15 16 17 19 20 18 16 15 14 13 12 12 11 11 18 17 21 25 26 26 28 22 23 17 15 11 8 7 6 8 9 21 26 27 28 31 32 34 31 20 23 23 22 27 19 10 10 14 13 13 13 11 9 9 8 7 6 7 7 7 7 6 6 7 6 6 6
15 16 16 16 16 15 15 16 15 15 15 15 15 16 17 16 15 14 15 15 15 16 16 15 15 15 15 14 13 12 10 9 13 20 19 24 25 27 27 28 27 18 13 11 9 9 8 12 11 23 27 29 31 32 30 31 23 30 28 29 26 25 11 10 9 10 11 10 10 9 10 9 9 7 7 7 7 8 7 7 7 7 6 5 5
17 17 17 17 17 17 17 16 17 16 16 16 17 17 18 16 16 15 14 15 15 16 16 15 15 15 14 14 13 12 10 9 9 13 21 22 25 26 27 28 27 29 19 14 10 9 12 17 21 26 28 30 31 31 27 31 34 30 31 31 26 13 11 13 10 9 11 11 9 9 9 7 8 7 8 8 8 8 7 6 5 5 4 3 2
19 19 19 18 18 17 18 19 18 17 17 15 16 16 17 16 15 15 14 15 15 15 16 15 15 15 15 14 14 13 11 9 8 8 11 17 19 24 27 26 27 29 26 16 16 16 19 22 26 27 27 25 21 17 16 18 26 28 29 29 17 15 13 11 11 12 10 12 10 12 9 7 8 8 9 9 8 7 7 7 7 5 4 3 3
20 20 19 17 18 17 18 16 16 16 16 15 15 15 14 14 14 15 14 15 15 16 16 16 16 16 16 15 14 12 12 10 9 8 8 9 10 13 15 17 25 26 19 15 13 13 18 19 16 19 18 26 27 23 21 19 19 20 19 19 16 12 10 12 9 8 11 12 11 9 7 7 7 8 8 8 7 7 7 6 6 6 6 5 4
18 20 20 18 18 17 17 21 20 16 16 15 15 14 14 13 14 15 15 14 15 16 15 16 16 15 15 14 14 13 13 11 10 9 9 9 9 9 10 11 10 11 13 12 11 10 11 15 18 14 15 15 17 14 14 13 14 13 13 14 11 12 16 16 13 7 11 9 8 10 8 8 7 7 7 7 7 6 7 6 6 6 6 6 5
20 22 20 20 18 18 17 16 16 16 16 16 15 15 14 14 15 16 16 14 15 16 16 17 18 17 16 16 16 15 14 13 11 8 8 12 11 8 10 10 9 10 14 13 9 8 10 11 11 12 12 13 14 13 13 12 10 13 15 10 12 12 13 14 14 12 9 11 11 10 8 7 7 6 7 7 7 7 7 6 6 6 6 6 5
20 20 18 17 18 17 16 17 16 16 17 16 16 17 20 25 21 18 17 22 29 32 29 22 20 17 18 18 16 17 16 13 15 15 15 19 20 22 19 18 17 14 14 20 13 10 12 11 12 13 13 13 13 14 13 12 11 13 13 13 12 12 13 12 11 11 10 11 12 10 8 8 7 7 7 7 7 6 6 7 6 7 6 6 5
19 17 17 16 17 18 18 17 17 17 17 18 17 18 17 16 24 30 31 30 30 33 34 36 38 36 27 22 23 32 31 30 28 26 25 23 22 23 24 22 23 23 21 15 14 11 10 10 12 12 12 12 12 13 13 13 11 11 12 11 12 13 13 12 11 10 11 11 11 9 8 8 8 8 8 7 7 7 7 7 5 6 5 5 5
18 18 16 16 18 18 17 18 18 18 17 16 17 17 17 18 17 21 27 28 30 32 33 33 33 33 35 33 26 19 27 32 32 29 27 27 26 25 25 24 24 24 23 23 12 11 11 12 12 13 13 13 12 12 11 11 10 11 12 13 13 11 13 12 11 11 11 13 11 9 9 8 8 8 7 7 7 7 7 7 6 5 5 4 4
19 19 17 17 17 18 17 17 16 16 17 17 17 16 17 16 18 17 16 23 28 27 27 31 32 31 30 29 30 29 29 27 29 29 27 27 27 25 23 25 24 25 24 17 13 14 10 11 11 12 13 13 11 11 12 12 12 11 11 12 12 11 10 11 13 12 10 11 9 9 8 9 8 8 7 7 7 7 7 6 6 5 5 5 5
19 17 16 17 17 17 16 16 16 16 16 16 16 16 16 17 17 18 18 16 16 20 26 29 30 32 33 33 32 31 29 29 29 29 30 28 27 26 23 18 23 26 21 13 13 14 14 12 12 10 10 10 10 10 10 12 13 13 13 13 13 12 12 13 12 13 9 10 9 9 8 8 8 9 8 7 6 6 6 6 6 6 5 5 5
17 20 26 21 16 16 16 16 16 16 16 16 15 16 16 16 16 17 16 17 16 16 15 15 19 25 23 23 26 31 31 29 28 28 28 27 27 25 23 15 14 14 16 13 11 9 12 11 11 10 11 11 10 11 12 11 12 12 13 13 11 12 13 13 13 13 12 9 9 9 9 9 8 8 8 8 7 7 6 6 5 5 5 5 5
17 15 15 17 16 15 15 15 16 16 15 15 16 16 16 16 16 16 16 16 16 16 15 15 15 18 28 27 27 27 29 30 26 25 25 25 25 24 15 12 13 13 13 13 11 11 13 14 11 10 11 10 10 10 10 10 11 11 11 11 12 10 11 12 12 12 9 8 9 12 11 9 9 8 7 7 8 7 6 6 6 5 5 5 5
15 14 14 14 15 15 15 15 15 16 17 18 17 16 16 16 16 16 15 15 16 14 14 14 14 15 18 16 19 21 24 23 23 23 23 23 24 18 13 13 13 12 11 11 11 9 10 11 9 10 10 10 10 10 10 11 11 11 10 10 11 12 10 8 9 12 10 9 8 9 8 8 8 7 7 7 6 6 6 6 6 5 6 6 6
16 15 14 14 15 16 16 15 16 20 17 15 14 14 14 14 14 15 15 15 16 16 15 15 16 15 15 15 20 13 12 16 19 17 18 21 15 14 14 13 11 11 10 9 9 10 9 9 9 11 11 11 11 11 10 10 11 11 11 12 13 11 17 17 16 12 11 9 9 8 8 8 7 7 7 7 7 6 6 6 6 5 6 7 6
14 19 23 25 20 16 15 15 15 15 15 14 13 14 14 14 14 14 14 13 14 14 14 14 13 13 12 12 13 12 11 10 9 8 8 9 9 11 12 10 11 11 10 8 7 10 9 12 11 10 11 11 11 10 11 11 11 11 11 10 10 12 13 11 11 10 10 9 9 8 8 8 7 7 6 6 6 6 6 6 6 5 5 5 6
14 13 16 23 17 17 15 15 14 14 15 14 14 14 14 14 13 13 13 13 14 13 13 13 13 12 12 12 12 11 9 9 8 8 7 8 8 10 10 9 8 9 8 6 8 9 10 10 10 10 10 10 10 10 9 10 11 12 10 9 11 11 10 8 9 9 9 9 9 8 8 8 7 6 6 5 5 6 6 6 6 6 5 5 5
13 14 15 16 18 16 15 15 14 14 13 13 13 13 13 14 13 13 13 13 13 13 13 13 14 14 13 15 20 17 10 9 8 8 8 7 4 7 8 9 8 7 6 5 7 7 8 9 9 9 9 10 10 10 10 11 11 12 13 12 9 9 9 12 10 7 8 8 8 8 7 7 7 7 7 5 6 6 5 5 5 5 6 6 6
13 13 14 14 15 14 13 14 13 15 14 14 13 13 13 13 12 12 13 13 13 13 13 13 13 12 14 21 19 20 13 9 7 7 7 7 5 5 6 6 6 5 5 7 8 8 8 8 9 10 10 10 11 10 10 11 12 12 13 12 13 15 12 9 9 8 9 8 8 8 7 7 7 6 6 8 6 6 6 6 5 5 5 5 5
14 13 13 13 13 13 13 13 13 13 13 13 13 13 13 13 12 12 12 12 12 12 11 12 12 12 13 16 15 16 10 8 7 5 5 6 5 2 2 3 4 5 6 6 7 8 8 10 10 9 11 11 13 13 13 13 13 12 12 11 13 14 14 10 8 8 7 7 8 7 8 10 9 6 7 6 6 6 6 6 6 5 5 5 4
13 12 13 13 13 13 13 12 12 12 12 15 16 14 13 12 12 11 11 11 12 11 11 11 11 11 10 10 10 8 7 7 6 6 2 2 4 4 4 6 7 8 8 7 7 9 9 10 10 9 9 9 9 9 10 12 14 13 12 13 13 13 12 10 9 9 8 8 7 8 8 8 8 8 7 7 7 6 6 6 5 5 4 4 4
11 12 12 12 12 12 12 11 11 12 13 12 11 11 11 10 11 10 10 10 10 10 10 10 10 10 9 8 6 5 3 3 2 2 3 4 5 6 5 5 6 8 9 9 7 9 10 10 11 11 10 7 7 7 8 9 10 10 13 15 13 12 10 9 9 8 8 9 8 8 8 9 8 6 6 6 6 5 5 5 5 5 4 4 4
11 12 12 11 12 11 11 11 11 11 11 10 10 9 9 9 9 9 8 8 8 8 7 7 6 5 5 4 4 3 4 4 4 5 3 4 5 6 5 5 6 8 8 6 7 9 9 9 9 8 9 9 9 9 8 9 10 9 11 12 11 8 8 7 8 8 7 8 8 8 7 7 6 5 6 6 5 5 4 4 4 4 4 5 5
12 11 11 11 11 11 11 11 10 10 11 11 10 10 9 8 8 8 7 8 7 7 6 6 5 5 5 5 5 4 4 5 5 5 6 6 6 6 6 7 7 8 8 8 8 7 7 7 7 8 11 12 10 12 9 7 7 7 8 7 8 9 7 7 8 7 7 6 6 7 7 6 6 5 7 6 6 6 5 4 4 5 5 5 5
11 11 10 11 11 10 10 10 11 12 10 10 10 10 9 9 8 8 8 8 8 7 7 6 6 6 6 6 6 5 5 5 6 6 6 6 6 6 6 7 7 7 8 8 8 8 8 7 9 11 12 13 14 12 10 8 7 7 7 6 6 8 10 9 7 6 5 5 5 6 6 5 5 5 5 6 5 4 4 4 4 4 5 5 5
10 10 10 11 10 10 10 10 10 10 10 10 10 10 10 9 9 8 7 7 7 7 7 7 7 7 7 7 7 6 6 6 6 6 6 6 7 7 7 8 8 8 8 9 8 8 9 9 12 11 9 9 9 9 9 9 8 7 7 6 10 17 15 13 8 6 8 6 5 5 4 4 5 4 4 4 4 3 3 3 3 4 4 5 6
10 10 10 10 10 10 10 9 9 9 9 9 9 9 10 9 9 9 8 8 7 7 7 7 7 7 7 7 7 7 7 7 7 7 7 7 7 7 8 8 8 9 9 9 10 10 9 10 12 9 9 9 9 9 8 8 8 7 7 10 16 16 15 14 14 13 8 5 6 4 5 4 4 3 3 3 3 4 4 4 5 5 5 6 6
10 10 9 9 9 10 9 9 9 9 9 9 9 9 9 9 9 9 9 9 8 8 7 8 7 7 7 7 7 7 7 7 7 7 7 7 7 7 8 8 9 9 11 11 9 8 9 8 8 8 9 8 8 8 7 8 7 7 11 17 16 15 15 12 8 10 11 8 5 5 5 5 4 4 3 3 3 4 5 5 6 6 6 6 5
Wind_Direction
13 12 6 8 12 12 9 8 5 357 350 342 325 313 303 292 283 272 270 258 250 237 229 224 218 215 213 213 215 214 211 210 207 208 211 214 214 211 207 200 205 210 207 203 201 199 204 204 201 202 178 189 193 185 187 186 184 185 178 181 187 185 190 198 199 139 132 134 153 160 163 163 174 184 184 182 184 192 204 224 225 228 233 236 221
3 358 357 1 3 2 6 8 4 359 355 352 346 336 322 313 301 287 273 265 251 245 241 233 225 219 217 217 213 216 216 214 211 209 214 215 216 211 205 196 200 205 204 205 199 198 202 202 202 196 187 196 188 188 187 182 184 182 185 183 187 180 192 187 196 163 165 162 161 153 161 176 180 185 189 187 187 188 203 216 226 229 233 237 233
3 357 353 356 358 359 359 1 360 4 4 359 353 345 338 325 317 305 294 282 267 254 250 242 231 221 220 217 216 217 216 215 213 213 217 217 217 213 206 200 200 199 203 205 194 185 192 204 203 185 172 197 201 195 183 185 183 185 178 178 182 179 179 193 183 178 164 173 166 161 171 180 191 177 183 185 184 191 210 220 225 225 230 235 235
356 357 354 352 353 354 358 357 358 359 359 354 351 347 337 331 322 312 303 289 279 268 251 252 246 231 226 222 219 217 212 214 216 215 216 217 219 220 213 211 207 204 203 198 186 184 198 201 202 177 177 198 199 191 191 186 181 180 166 168 179 172 172 178 193 180 167 157 180 177 173 169 190 176 171 177 187 200 211 222 223 232 231 223 228
354 355 351 345 345 354 354 356 356 356 353 348 344 340 339 335 327 316 310 296 278 271 260 244 248 241 230 223 219 220 218 215 218 219 218 219 220 219 214 210 209 212 211 202 194 184 189 201 192 166 172 197 196 196 187 188 185 170 173 168 169 158 152 173 178 178 171 171 160 171 166 173 177 176 174 178 190 202 206 214 221 224 227 225 222
345 345 346 346 347 350 350 350 348 346 344 343 340 338 333 333 331 326 319 311 300 280 268 256 234 243 239 231 223 221 215 216 220 222 221 219 219 221 220 214 212 211 211 212 205 194 193 193 175 177 181 198 198 190 177 186 175 184 178 163 159 145 156 169 174 173 175 173 159 156 173 170 173 188 188 190 185 187 195 208 218 225 221 217 209
346 345 347 346 345 350 346 345 342 337 335 333 333 334 335 332 330 329 326 316 306 298 286 264 248 244 245 241 236 232 229 227 225 219 217 218 219 219 222 217 209 208 214 215 213 217 219 201 170 182 194 201 196 186 180 182 187 185 169 155 149 153 164 170 170 172 176 167 165 173 170 180 177 179 184 192 202 200 191 189 205 208 210 209 194
341 341 340 342 342 343 341 337 336 334 331 329 326 325 323 331 334 328 325 319 313 303 292 285 268 248 241 245 241 236 234 234 233 230 226 225 220 219 219 215 211 211 216 214 214 217 210 207 202 197 199 193 192 173 173 178 176 188 183 159 161 160 165 160 162 172 175 176 175 173 175 172 178 171 158 176 192 210 212 207 196 185 193 190 191
337 338 338 339 338 333 330 329 331 337 332 330 330 330 330 325 322 319 318 316 314 306 294 285 279 267 251 237 242 246 246 239 233 223 216 218 213 211 217 219 210 217 218 218 211 208 211 207 210 212 212 210 207 202 199 191 171 179 178 168 162 164 155 165 176 173 176 171 177 177 173 176 178 171 175 188 196 198 186 195 207 197 198 189 176
334 333 333 332 331 330 329 327 332 334 335 335 332 329 328 328 327 324 317 311 311 309 302 288 277 274 269 256 244 235 239 245 241 237 233 229 229 233 233 233 228 222 218 218 218 217 218 214 218 219 216 216 215 212 203 196 198 188 167 167 165 159 164 167 175 179 171 178 185 176 179 190 182 182 183 191 187 166 168 188 195 189 191 201 184
327 327 327 328 326 325 326 327 329 329 327 327 324 325 325 324 322 319 318 317 315 312 311 302 286 267 264 267 262 253 239 237 241 235 231 227 227 232 231 232 231 229 221 214 216 213 214 211 210 215 215 213 213 208 204 201 202 208 209 201 177 161 165 167 179 164 178 191 178 184 191 181 181 174 177 168 174 180 182 186 187 182 195 186 168
318 317 319 323 324 325 326 326 327 325 326 323 321 313 310 310 312 312 315 319 317 315 307 295 295 289 275 266 257 254 252 248 241 236 230 226 221 223 225 230 227 227 224 216 218 214 210 206 200 188 189 199 197 196 202 205 207 207 203 199 202 205 192 176 159 171 198 175 183 198 179 187 168 170 170 167 173 176 184 184 185 186 187 201 180
312 313 314 316 316 317 322 325 325 324 326 325 319 312 305 306 308 314 314 311 309 305 309 302 290 281 275 277 271 261 256 254 248 236 230 227 223 217 229 228 228 230 225 220 218 218 209 195 193 189 200 205 201 195 191 195 205 206 208 203 205 204 207 222 262 308 179 164 176 179 192 174 166 180 174 169 165 168 174 181 183 185 193 194 193
308 308 310 310 313 314 316 320 319 319 320 320 319 312 308 303 305 307 305 307 308 303 303 297 296 292 280 275 272 270 267 266 251 243 235 226 225 221 227 229 230 231 225 218 219 220 213 192 193 195 189 187 190 191 183 185 184 191 196 199 203 207 209 210 211 225 258 218 173 186 186 175 176 162 166 164 167 172 175 180 178 181 190 193 180
303 303 302 303 307 308 311 314 314 315 318 319 318 312 306 303 304 304 303 301 302 300 301 299 300 295 287 278 275 271 266 266 260 247 242 233 228 224 228 229 231 233 229 222 222 221 219 206 200 200 190 187 186 181 178 174 180 177 174 192 197 200 201 199 198 195 197 206 228 204 169 167 153 151 157 167 171 170 173 168 172 176 173 167 205
294 299 299 301 303 304 307 308 308 310 311 313 313 311 309 304 304 304 300 295 288 288 288 286 290 296 292 288 280 275 269 267 261 252 246 242 236 228 231 231 232 234 233 226 218 219 218 203 197 198 190 193 184 182 180 167 185 187 176 173 181 190 200 200 188 178 178 190 196 186 168 166 158 152 156 157 159 155 143 149 150 138 150 177 215
294 295 295 297 299 298 301 303 303 304 305 305 304 304 305 304 303 304 299 295 290 287 282 280 281 284 288 288 279 274 275 268 260 256 253 249 243 237 233 231 230 233 233 230 213 210 203 190 193 196 187 194 185 189 186 168 187 190 190 176 179 173 189 185 187 183 181 184 166 165 166 166 158 154 157 160 158 160 156 153 167 167 177 193 213
295 295 292 294 292 295 296 298 297 299 300 296 298 301 299 295 293 296 294 294 291 285 281 281 275 272 278 283 274 277 277 274 269 262 255 251 243 241 237 237 231 225 228 218 210 209 209 209 205 197 189 192 183 190 190 182 191 194 194 188 187 182 179 169 165 182 181 177 173 172 177 176 166 162 164 167 170 175 170 178 175 180 195 195 192
294 296 297 297 295 291 290 289 291 292 291 290 291 291 292 290 287 290 289 289 286 288 285 280 279 274 270 274 279 275 273 274 266 261 255 250 244 239 242 241 238 229 223 220 206 213 203 211 207 203 189 182 182 191 193 190 195 194 192 177 185 189 180 166 165 165 170 170 177 175 182 180 174 174 178 179 183 176 177 186 188 188 191 194 187
300 299 296 294 293 291 288 287 279 281 284 288 290 287 286 285 284 286 288 288 289 287 284 279 280 275 269 271 271 266 267 268 263 258 254 249 244 239 237 243 240 238 229 222 207 205 202 196 199 202 193 188 190 195 196 193 193 194 174 184 184 189 165 161 165 160 167 171 174 180 184 182 180 173 180 188 189 169 184 183 177 183 188 187 174
304 297 295 294 291 289 288 286 284 280 279 285 287 286 284 282 284 285 288 289 285 283 280 279 276 272 268 261 260 262 261 265 263 255 252 248 244 240 236 239 243 241 236 231 218 193 199 196 190 199 201 197 197 198 197 202 198 194 193 194 192 160 154 167 176 170 169 170 173 178 180 173 139 137 158 165 161 164 162 171 181 191 187 181 176
304 299 293 290 287 287 288 286 281 282 283 285 283 282 279 278 280 283 285 285 285 284 280 276 272 268 266 257 253 260 256 248 253 254 250 248 244 239 238 239 239 243 240 231 203 196 191 186 186 188 198 200 200 198 202 205 201 189 192 186 174 172 174 174 167 172 169 165 169 177 168 141 153 149 159 159 154 152 156 165 180 189 193 192 181
306 300 295 289 289 290 289 286 283 284 284 282 281 280 281 280 279 280 278 275 273 275 274 272 266 263 262 260 252 247 241 239 240 247 247 247 244 241 239 241 240 239 240 232 205 195 169 171 178 178 192 199 203 206 205 206 205 199 188 181 178 172 167 167 166 169 167 170 169 169 160 161 152 156 152 159 156 151 160 167 177 186 192 192 188
306 299 294 291 292 291 289 288 283 282 281 282 283 280 279 277 276 274 276 274 275 272 271 270 266 260 257 259 255 243 229 233 232 236 241 243 243 242 242 242 241 240 237 235 221 183 178 193 176 182 191 198 204 208 207 206 204 199 190 187 181 174 158 163 166 171 167 163 166 160 163 164 165 160 167 160 156 151 156 163 174 183 185 193 188
304 296 295 294 293 293 292 288 287 286 284 283 281 279 277 278 277 274 271 270 268 266 267 266 263 262 260 257 258 255 243 223 229 231 234 240 243 243 243 242 243 243 239 235 214 191 180 177 180 188 193 199 204 206 207 208 206 197 190 185 180 172 164 168 167 158 170 173 166 158 157 152 161 159 155 148 139 140 149 157 165 170 176 182 169
302 298 298 296 294 295 291 290 287 283 281 278 274 272 271 272 271 272 270 267 268 267 269 269 265 262 260 256 255 254 250 238 230 227 221 235 239 243 242 242 242 242 244 234 223 186 182 187 191 195 198 201 203 202 204 206 207 196 184 179 182 176 169 160 163 171 171 170 163 170 162 144 152 150 145 142 143 153 156 160 160 165 170 184 187
300 297 296 297 297 296 293 292 291 287 281 278 273 271 271 270 269 270 267 266 267 269 270 270 269 266 264 261 260 257 249 242 236 227 217 223 224 229 235 239 240 242 245 235 208 185 189 187 192 193 196 199 197 198 201 199 204 190 184 181 184 174 154 167 162 157 164 169 171 162 144 134 132 134 148 151 148 156 155 163 164 174 172 183 180
296 295 294 293 292 291 289 287 286 284 281 277 275 273 270 266 267 265 267 267 269 271 271 270 271 270 270 270 269 264 257 248 233 222 220 214 220 215 223 231 230 229 235 232 212 186 175 187 189 192 194 196 198 195 198 198 196 180 180 178 171 164 172 167 159 146 166 160 139 140 125 133 135 143 141 142 147 152 157 163 174 169 168 173 175
293 291 292 293 291 292 288 286 285 285 283 280 273 269 269 269 267 267 262 263 263 266 270 268 266 267 271 272 271 268 262 257 245 208 210 210 208 212 215 223 217 222 230 212 182 172 171 179 184 185 188 192 192 192 193 190 184 179 181 169 168 164 166 172 172 165 147 140 147 143 136 129 133 133 135 137 152 159 165 164 180 167 170 174 185
295 294 293 292 292 291 291 289 288 286 284 283 283 278 269 267 266 265 267 262 262 263 264 265 266 268 271 266 261 261 264 265 271 262 233 225 225 226 224 222 226 226 228 206 171 172 180 177 182 182 184 188 190 191 186 185 178 178 181 173 161 158 165 165 161 158 149 151 151 147 135 138 141 147 146 148 151 159 176 168 178 173 169 173 181
296 294 293 291 292 292 291 289 288 285 284 284 282 283 284 274 269 269 268 270 269 269 268 266 267 265 263 265 266 266 267 267 266 264 262 255 240 236 231 227 227 231 226 196 177 177 179 178 182 182 184 186 191 190 185 184 170 169 169 166 164 159 157 154 155 145 146 149 153 141 139 146 148 148 151 154 154 158 170 174 176 175 169 172 178
293 293 294 293 293 290 289 288 287 286 285 283 282 283 282 284 280 269 269 270 273 274 272 267 265 265 261 258 260 262 262 262 262 260 258 255 253 249 238 229 228 227 229 189 180 186 187 181 184 186 182 185 187 186 183 175 161 158 154 157 163 159 153 150 148 148 151 154 149 143 147 148 146 149 149 151 154 161 165 171 174 171 164 171 189
293 293 293 293 292 291 291 289 287 286 285 283 282 280 281 282 283 288 279 276 277 277 282 290 290 288 287 282 272 264 262 260 259 259 254 251 249 247 244 236 231 226 223 197 193 196 186 188 183 179 180 187 180 178 175 161 154 153 153 152 153 155 152 146 148 156 156 152 138 145 147 143 143 139 144 152 160 164 165 166 167 157 162 172 197
290 289 292 292 291 290 288 287 286 285 283 283 282 282 280 280 283 285 288 289 285 282 279 277 281 287 286 281 278 279 276 268 265 258 252 248 245 243 240 236 232 229 222 203 197 193 190 185 191 184 185 182 178 172 164 163 162 159 157 157 154 154 153 152 155 157 139 145 141 139 141 144 145 147 152 159 162 159 159 161 159 154 170 182 194
287 286 286 288 287 287 286 285 285 284 284 282 281 280 279 279 279 280 280 282 284 283 285 281 275 272 273 275 273 269 270 271 265 262 255 245 239 234 233 231 227 227 225 208 198 186 187 181 184 185 189 184 175 167 167 163 158 161 163 159 153 152 149 158 162 159 154 141 142 144 150 149 149 151 153 155 158 161 163 157 158 163 168 181 191
288 287 289 289 286 284 283 284 283 282 281 280 280 279 278 278 276 275 275 275 277 279 283 281 279 276 277 276 270 263 260 261 263 265 263 250 234 223 221 220 223 222 222 209 188 188 188 189 179 175 182 177 169 164 162 157 158 160 162 155 154 148 151 158 161 159 148 137 138 146 145 145 152 151 148 147 155 156 154 153 154 163 172 185 198
287 288 288 288 288 287 287 284 283 282 282 281 279 277 276 276 275 276 276 277 277 278 281 288 291 290 288 281 274 269 264 259 257 256 258 258 238 217 214 217 221 222 224 209 188 173 178 183 167 177 171 168 162 160 159 162 161 157 150 148 145 147 152 140 140 150 140 139 136 141 142 145 145 149 149 151 155 150 149 150 152 163 178 194 197
285 286 288 290 291 291 290 287 285 284 283 282 282 282 283 283 283 282 283 281 281 282 281 279 276 276 279 289 285 270 265 263 264 264 262 258 242 210 211 213 216 222 223 216 190 179 168 163 167 172 168 163 165 162 159 156 161 160 154 153 157 157 154 155 154 143 140 124 137 140 142 143 144 148 150 151 154 151 152 155 158 171 187 198 206
290 290 292 294 294 292 289 288 286 285 282 281 280 281 280 280 281 281 281 282 285 283 281 277 275 272 269 265 274 272 268 264 261 262 261 257 222 206 207 207 213 222 224 217 183 179 170 176 176 161 161 162 161 159 156 157 157 157 152 140 130 143 150 147 146 139 141 142 142 146 145 148 146 151 152 148 145 146 150 152 168 175 187 193 204
297 298 295 295 295 292 291 286 284 281 279 279 278 278 278 278 277 278 280 281 279 279 281 282 276 269 265 264 269 276 274 271 265 267 267 264 211 197 199 200 205 217 218 207 194 178 173 167 162 157 153 151 151 150 150 150 155 157 143 129 142 150 146 138 139 146 143 145 142 144 144 146 143 140 139 144 146 147 151 160 171 186 194 203 211
297 295 294 294 292 292 290 286 281 276 275 273 274 274 274 274 274 274 274 275 276 278 277 277 278 275 276 278 282 283 281 271 265 261 260 264 220 186 189 195 199 209 205 182 171 165 155 154 150 146 142 141 142 144 149 154 152 155 157 151 135 131 129 151 147 131 134 131 137 141 141 139 142 147 153 153 155 150 150 161 175 188 200 210 217
298 299 300 300 299 297 292 290 284 280 276 273 271 269 270 270 270 269 272 274 273 273 275 280 282 285 279 277 279 282 281 272 264 257 257 260 246 211 188 186 190 182 144 147 153 146 139 134 137 139 142 141 141 146 148 154 158 156 159 157 157 155 150 141 143 132 134 140 136 138 136 139 145 143 148 151 156 155 165 175 184 192 202 212 218
303 302 301 300 300 295 294 290 288 285 281 277 273 270 266 265 265 265 266 268 268 265 268 279 288 289 287 289 287 287 285 282 275 256 248 257 247 215 172 163 121 110 132 137 139 135 132 140 139 141 146 154 159 160 161 159 158 156 157 156 156 157 155 139 127 129 130 133 139 132 132 150 152 148 158 153 157 160 168 178 190 201 205 216 221
307 306 304 302 300 298 297 295 294 293 290 287 281 277 273 269 266 264 264 265 268 272 274 276 279 290 300 305 301 293 285 285 285 274 245 84 74 74 91 105 109 108 113 116 122 126 129 136 139 143 145 150 149 150 152 158 158 159 155 154 154 150 143 138 139 143 143 138 132 136 142 147 146 153 158 161 160 165 178 185 194 202 209 215 226
311 309 306 306 306 307 307 307 307 305 301 301 304 297 284 274 268 265 265 265 270 272 274 276 280 285 293 301 310 317 337 8 17 45 74 92 100 98 99 95 103 114 118 122 124 135 139 142 143 142 140 126 120 128 134 149 157 159 160 154 148 147 145 139 139 133 127 131 137 140 146 153 156 152 152 157 162 167 174 184 191 199 209 221 229
313 311 309 309 310 311 312 314 316 317 318 317 314 320 326 323 318 309 302 301 297 290 287 300 317 334 344 347 355 2 10 22 39 46 60 78 91 92 89 90 89 107 114 105 122 132 137 135 136 128 129 124 126 126 129 140 146 144 144 144 134 104 112 108 118 126 132 134 135 140 140 140 144 146 150 152 163 173 173 184 191 201 215 227 236
317 313 315 314 316 315 318 320 321 327 330 329 329 329 331 334 335 338 343 348 346 350 354 352 348 352 353 3 7 18 21 40 41 46 52 61 72 84 81 96 106 103 104 111 109 106 113 104 96 109 124 127 121 129 117 101 101 103 102 88 100 106 111 119 118 123 127 122 122 127 135 136 142 141 155 160 163 171 174 188 196 210 220 232 235
321 319 318 320 320 324 326 328 332 336 337 337 338 335 335 339 345 350 354 353 358 357 357 1 3 359 1 9 16 25 35 43 49 50 54 58 58 61 66 72 78 83 98 95 91 100 100 103 112 118 123 123 122 113 95 95 90 93 88 92 90 106 108 106 112 107 112 112 114 121 124 130 137 143 152 161 164 167 177 198 205 218 226 228 237
327 327 327 327 329 330 330 333 338 340 341 342 342 342 343 343 349 355 355 359 359 2 3 5 6 7 10 11 14 22 34 43 49 49 48 48 56 65 68 69 75 73 77 81 78 82 89 103 115 108 96 96 92 97 99 96 98 90 91 87 106 111 115 113 108 112 113 111 112 111 112 115 128 136 146 161 171 183 202 221 229 231 238 234 233
332 332 332 332 333 332 331 333 335 337 342 346 345 347 346 347 348 350 352 357 1 4 8 10 13 13 13 14 17 18 24 34 47 49 49 49 60 68 74 69 68 75 79 81 91 98 100 106 109 94 88 94 97 96 99 95 93 95 94 107 113 112 113 113 117 123 121 115 122 128 126 131 128 142 157 177 188 200 215 227 236 239 234 229 237
337 336 337 339 338 337 339 341 342 345 347 348 350 351 352 354 352 353 355 357 1 6 9 14 17 19 26 22 24 25 34 34 43 52 53 56 65 78 78 77 83 85 92 96 89 78 93 85 83 87 92 89 90 89 86 92 90 97 112 116 117 118 120 120 124 131 128 123 120 124 136 143 157 161 183 192 210 211 226 230 238 236 237 236 253